Location: Sun City Center
(27.6996°N, 82.3528°W)
Time: 15:58:21
(UTC-04:00)

Cosmos 2084 Rocket - Visible Passes

Search period start: 23 July 2014 00:00
Search period end: 02 August 2014 00:00
Orbit: 559 x 638 km, 62.8° (Epoch: 23 July)

Date Brightness Start Highest point End Pass type
(mag) Time Alt. Az. Time Alt. Az. Time Alt. Az.
23 Jul 5.0 22:13:45 10° NW 22:17:49 33° WSW 22:19:31 25° SSW visible
24 Jul 4.4 20:44:47 10° N 20:49:02 37° ENE 20:53:17 10° SE visible
24 Jul 6.0 22:25:34 10° WNW 22:28:22 16° WSW 22:30:29 12° SW visible
25 Jul 3.6 20:55:14 10° NNW 20:59:47 77° ENE 21:04:23 10° SSE visible
26 Jul 4.4 21:06:03 10° NW 21:10:28 50° WSW 21:14:54 10° S visible
27 Jul 5.7 21:17:22 10° WNW 21:21:03 24° WSW 21:24:45 10° SSW visible
28 Jul 6.4 21:29:56 10° W 21:31:34 12° WSW 21:33:12 10° SW visible
